User: anonymous   Login
Location: Caltech
(34.1382°N, 118.1253°W)
Time: 20:22:13
(UTC-08:00)
Language:

DELTA 2 R/B (1) - Orbit

View from above orbital plane
View from above orbital plane
View from above satellite
View from above satellite

Ground track
Ground track

The orbit data is extracted from the following two-line orbital elements,

1 27665U 03005C   15065.19331525  .00000175  00000-0  10297-3 0  9995
2 27665 039.5771 036.4487 0009393 247.7374 188.1450 14.28304726631655
Epoch (UTC): 06 March 2015 04:38:22
Eccentricity: 0.0009393
inclination: 39.5771°
perigee height: 790 km
apogee height: 804 km
right ascension of ascending node: 36.4487°
argument of perigee: 247.7374°
revolutions per day: 14.28304726
mean anomaly at epoch: 188.1450°
orbit number at epoch: 63165

The dashed part of the orbit path shows where the satellite is in the earth's shadow,  

DLR